TimeHST,TemperatureF,Dew PointF,Humidity,Sea Level PressureIn,VisibilityMPH,Wind Direction,Wind SpeedMPH,Gust SpeedMPH,PrecipitationIn,Events,Conditions,WindDirDegrees,DateUTC
12:54 AM,70.0,63.0,78,30.13,10.0,ENE,13.8,-,N/A,,Clear,60,2013-02-24 10:54:00
1:54 AM,70.0,63.0,78,30.12,10.0,NE,12.7,20.7,N/A,,Clear,50,2013-02-24 11:54:00
2:54 AM,68.0,63.0,84,30.10,10.0,ENE,8.1,-,N/A,,Scattered Clouds,60,2013-02-24 12:54:00
3:54 AM,69.1,62.1,78,30.09,10.0,NE,11.5,-,N/A,,Clear,50,2013-02-24 13:54:00
4:54 AM,69.1,63.0,81,30.09,10.0,NE,10.4,-,N/A,,Scattered Clouds,50,2013-02-24 14:54:00
5:54 AM,69.1,61.0,75,30.09,10.0,NE,10.4,-,N/A,,Scattered Clouds,50,2013-02-24 15:54:00
6:54 AM,69.1,63.0,81,30.11,10.0,NE,15.0,20.7,0.00,Rain,Light Rain,50,2013-02-24 16:54:00
7:54 AM,70.0,62.1,76,30.13,10.0,ENE,11.5,-,0.00,,Scattered Clouds,60,2013-02-24 17:54:00
8:54 AM,70.0,66.0,87,30.14,10.0,NE,10.4,21.9,0.02,Rain,Light Rain,50,2013-02-24 18:54:00
9:54 AM,73.0,66.0,79,30.15,10.0,ENE,13.8,-,0.01,,Scattered Clouds,60,2013-02-24 19:54:00
10:54 AM,73.9,66.0,76,30.14,10.0,ENE,18.4,26.5,0.00,,Mostly Cloudy,60,2013-02-24 20:54:00
11:54 AM,77.0,64.0,64,30.12,10.0,ENE,18.4,26.5,0.00,,Scattered Clouds,70,2013-02-24 21:54:00
12:54 PM,75.0,64.9,71,30.10,10.0,ENE,19.6,32.2,0.00,,Scattered Clouds,70,2013-02-24 22:54:00
1:54 PM,77.0,63.0,62,30.07,10.0,ENE,18.4,28.8,N/A,,Scattered Clouds,60,2013-02-24 23:54:00
2:54 PM,77.0,64.0,64,30.06,10.0,NE,20.7,28.8,N/A,,Scattered Clouds,50,2013-02-25 00:54:00
3:54 PM,77.0,64.9,66,30.04,10.0,NE,20.7,29.9,N/A,,Scattered Clouds,50,2013-02-25 01:54:00
4:54 PM,70.0,66.9,90,30.06,10.0,NE,19.6,26.5,0.00,Rain,Rain,50,2013-02-25 02:54:00
5:54 PM,71.1,64.0,78,30.08,10.0,ENE,13.8,20.7,0.00,,Scattered Clouds,60,2013-02-25 03:54:00
6:54 PM,70.0,62.1,76,30.10,10.0,NE,15.0,-,N/A,,Partly Cloudy,50,2013-02-25 04:54:00
7:54 PM,70.0,61.0,73,30.13,10.0,NE,9.2,-,N/A,,Partly Cloudy,50,2013-02-25 05:54:00
8:54 PM,70.0,63.0,78,30.15,10.0,NE,12.7,-,N/A,,Partly Cloudy,50,2013-02-25 06:54:00
9:54 PM,70.0,62.1,76,30.16,10.0,ENE,15.0,20.7,N/A,,Clear,60,2013-02-25 07:54:00
10:54 PM,71.1,63.0,75,30.15,10.0,ENE,13.8,-,N/A,,Scattered Clouds,60,2013-02-25 08:54:00
11:54 PM,69.1,62.1,78,30.15,10.0,NE,8.1,-,N/A,,Clear,50,2013-02-25 09:54:00